TJS-9 (50574 NORAD) Tracking and Keplerian Element Data

This shows tracking and keplerian element data for the satellite.

Feedback or suggestion? Click here.




ElementValue
Catalog50574
NameTJS-9
Epoch Orbit153
Epoch Day140.67058163
Epoch Year2022
RAAN76.1576
Inclination0.0641
Eccentricity0.0004498
Argument of Perigee339.0758
Mean Anonmoly201.7068
Mean Motion1.00271717
Decay Rate-3.05E-06
L11 50574U 21135A 22140.67058163 -.00000305 00000+0 00000+0 0 9995
L22 50574 0.0641 76.1576 0004498 339.0758 201.7068 1.00271717 1535

Live tracking and technical data element details for TJS-9 (NORAD 50574). TJS-9 can be tracked NOW for your location showing map with azimuth and elevation plus other details from your city location.

Track the satellite on the map from your city or location and see movement details for azimuth, elevation, latitude, longitude, range, height, and movement on the map or in text.







IsCatalogInMostPopularTable: catalog: 50574, numindb: 25
Update: records affected: 1



GetName: 50574 TJS-9

Hit Count: updated at: Mon, 23 May 2022 20:13:37 GMT